Year,Month,Day,Hour,Minute,Value (Times are PST for windspeed in km/hr)
2010,04,02,00,00,27.20
2010,04,02,00,01,29.00
2010,04,02,00,02,30.10
2010,04,02,00,03,19.40
2010,04,02,00,04,20.40
2010,04,02,00,05,25.50
2010,04,02,00,06,27.40
2010,04,02,00,07,21.30
2010,04,02,00,08,19.80
2010,04,02,00,09,21.50
2010,04,02,00,10,25.50
2010,04,02,00,11,20.60
2010,04,02,00,12,17.80
2010,04,02,00,13,24.50
2010,04,02,00,14,24.30
2010,04,02,00,15,23.80
2010,04,02,00,16,24.10
2010,04,02,00,17,31.50
2010,04,02,00,18,28.20
2010,04,02,00,19,24.40
2010,04,02,00,20,22.30
2010,04,02,00,21,15.90
2010,04,02,00,22,18.20
2010,04,02,00,23,14.50
2010,04,02,00,24,21.30
2010,04,02,00,25,18.70
2010,04,02,00,26,21.20
2010,04,02,00,27,28.60
2010,04,02,00,28,20.60
2010,04,02,00,29,29.20
2010,04,02,00,30,25.50
2010,04,02,00,31,26.00
2010,04,02,00,32,22.90
2010,04,02,00,33,27.00
2010,04,02,00,34,31.50
2010,04,02,00,35,26.50
2010,04,02,00,36,22.00
2010,04,02,00,37,24.10
2010,04,02,00,38,27.90
2010,04,02,00,39,39.50
2010,04,02,00,40,32.90
2010,04,02,00,41,23.10
2010,04,02,00,42,26.90
2010,04,02,00,43,17.00
2010,04,02,00,44,25.40
2010,04,02,00,45,18.30
2010,04,02,00,46,24.60
2010,04,02,00,47,19.00
2010,04,02,00,48,26.10
2010,04,02,00,49,22.90
2010,04,02,00,50,24.70
2010,04,02,00,51,23.40
2010,04,02,00,52,31.30
2010,04,02,00,53,34.30
2010,04,02,00,54,22.90
2010,04,02,00,55,24.00
2010,04,02,00,56,30.30
2010,04,02,00,57,29.60
2010,04,02,00,58,28.60
2010,04,02,00,59,27.60
2010,04,02,01,00,17.70
2010,04,02,01,01,19.60
2010,04,02,01,02,33.10
2010,04,02,01,03,28.70
2010,04,02,01,04,25.00
2010,04,02,01,05,31.70
2010,04,02,01,06,29.10
2010,04,02,01,07,24.10
2010,04,02,01,08,31.30
2010,04,02,01,09,24.90
2010,04,02,01,10,22.40
2010,04,02,01,11,32.80
2010,04,02,01,12,33.40
2010,04,02,01,13,33.90
2010,04,02,01,14,30.50
2010,04,02,01,15,24.30
2010,04,02,01,16,24.70
2010,04,02,01,17,29.40
2010,04,02,01,18,29.50
2010,04,02,01,19,28.20
2010,04,02,01,20,25.00
2010,04,02,01,21,24.80
2010,04,02,01,22,26.70
2010,04,02,01,23,25.00
2010,04,02,01,24,25.40
2010,04,02,01,25,22.30
2010,04,02,01,26,32.00
2010,04,02,01,27,19.80
2010,04,02,01,28,25.70
2010,04,02,01,29,27.40
2010,04,02,01,30,30.30
2010,04,02,01,31,23.20
2010,04,02,01,32,28.70
2010,04,02,01,33,30.40
2010,04,02,01,34,23.40
2010,04,02,01,35,29.60
2010,04,02,01,36,27.40
2010,04,02,01,37,28.70
2010,04,02,01,38,32.30
2010,04,02,01,39,23.70
2010,04,02,01,40,29.60
2010,04,02,01,41,26.00
2010,04,02,01,42,25.10
2010,04,02,01,43,16.70
2010,04,02,01,44,17.90
2010,04,02,01,45,21.00
2010,04,02,01,46,23.10
2010,04,02,01,47,22.00
2010,04,02,01,48,19.70
2010,04,02,01,49,24.10
2010,04,02,01,50,27.60
2010,04,02,01,51,29.90
2010,04,02,01,52,27.50
2010,04,02,01,53,31.50
2010,04,02,01,54,24.10
2010,04,02,01,55,29.30
2010,04,02,01,56,29.70
2010,04,02,01,57,22.80
2010,04,02,01,58,28.50
2010,04,02,01,59,23.90
2010,04,02,02,00,26.00
2010,04,02,02,01,27.90
2010,04,02,02,02,24.90
2010,04,02,02,03,25.50
2010,04,02,02,04,25.50
2010,04,02,02,05,26.60
2010,04,02,02,06,26.70
2010,04,02,02,07,19.60
2010,04,02,02,08,27.20
2010,04,02,02,09,25.30
2010,04,02,02,10,23.60
2010,04,02,02,11,21.60
2010,04,02,02,12,18.30
2010,04,02,02,13,22.30
2010,04,02,02,14,31.80
2010,04,02,02,15,29.50
2010,04,02,02,16,34.90
2010,04,02,02,17,26.50
2010,04,02,02,18,26.10
2010,04,02,02,19,26.30
2010,04,02,02,20,26.40
2010,04,02,02,21,23.20
2010,04,02,02,22,26.70
2010,04,02,02,23,30.80
2010,04,02,02,24,24.10
2010,04,02,02,25,32.10
2010,04,02,02,26,27.40
2010,04,02,02,27,24.90
2010,04,02,02,28,28.10
2010,04,02,02,29,25.10
2010,04,02,02,30,34.40
2010,04,02,02,31,27.40
2010,04,02,02,32,27.00
2010,04,02,02,33,23.80
2010,04,02,02,34,21.60
2010,04,02,02,35,23.10
2010,04,02,02,36,30.70
2010,04,02,02,37,31.60
2010,04,02,02,38,21.50
2010,04,02,02,39,20.60
2010,04,02,02,40,22.50
2010,04,02,02,41,31.30
2010,04,02,02,42,27.20
2010,04,02,02,43,17.50
2010,04,02,02,44,24.80
2010,04,02,02,45,19.50
2010,04,02,02,46,17.30
2010,04,02,02,47,24.30
2010,04,02,02,48,21.90
2010,04,02,02,49,23.40
2010,04,02,02,50,29.00
2010,04,02,02,51,22.40
2010,04,02,02,52,19.20
2010,04,02,02,53,22.40
2010,04,02,02,54,25.50
2010,04,02,02,55,24.90
2010,04,02,02,56,20.70
2010,04,02,02,57,23.90
2010,04,02,02,58,21.30
2010,04,02,02,59,13.80
2010,04,02,03,00,16.60
2010,04,02,03,01,18.50
2010,04,02,03,02,24.20
2010,04,02,03,03,25.80
2010,04,02,03,04,20.10
2010,04,02,03,05,19.70
2010,04,02,03,06,14.90
2010,04,02,03,07,29.50
2010,04,02,03,08,28.60
2010,04,02,03,09,21.40
2010,04,02,03,10,18.00
2010,04,02,03,11,27.50
2010,04,02,03,12,18.90
2010,04,02,03,13,15.20
2010,04,02,03,14,23.80
2010,04,02,03,15,24.10
2010,04,02,03,16,21.40
2010,04,02,03,17,19.00
2010,04,02,03,18,27.70
2010,04,02,03,19,25.40
2010,04,02,03,20,24.60
2010,04,02,03,21,15.50
2010,04,02,03,22,25.50
2010,04,02,03,23,26.70
2010,04,02,03,24,23.10
2010,04,02,03,25,19.80
2010,04,02,03,26,23.60
2010,04,02,03,27,27.20
2010,04,02,03,28,21.40
2010,04,02,03,29,22.80
2010,04,02,03,30,26.80
2010,04,02,03,31,28.10
2010,04,02,03,32,19.40
2010,04,02,03,33,23.40
2010,04,02,03,34,20.00
2010,04,02,03,35,15.50
2010,04,02,03,36,18.50
2010,04,02,03,37,20.00
2010,04,02,03,38,20.90
2010,04,02,03,39,17.50
2010,04,02,03,40,16.20
2010,04,02,03,41,17.80
2010,04,02,03,42,29.00
2010,04,02,03,43,23.70
2010,04,02,03,44,22.90
2010,04,02,03,45,19.00
2010,04,02,03,46,18.20
2010,04,02,03,47,10.50
2010,04,02,03,48,16.60
2010,04,02,03,49,21.20
2010,04,02,03,50,13.60
2010,04,02,03,51,11.10
2010,04,02,03,52,8.20
2010,04,02,03,53,12.40
2010,04,02,03,54,21.20
2010,04,02,03,55,12.20
2010,04,02,03,56,12.30
2010,04,02,03,57,9.90
2010,04,02,03,58,11.70
2010,04,02,03,59,17.80
2010,04,02,04,00,18.00
2010,04,02,04,01,11.50
2010,04,02,04,02,15.40
2010,04,02,04,03,11.00
2010,04,02,04,04,14.70
2010,04,02,04,05,12.70
2010,04,02,04,06,13.30
2010,04,02,04,07,11.80
2010,04,02,04,08,12.10
2010,04,02,04,09,13.60
2010,04,02,04,10,12.20
2010,04,02,04,11,10.00
2010,04,02,04,12,8.70
2010,04,02,04,13,8.10
2010,04,02,04,14,8.30
2010,04,02,04,15,7.10
2010,04,02,04,16,9.40
2010,04,02,04,17,10.60
2010,04,02,04,18,7.70
2010,04,02,04,19,10.40
2010,04,02,04,20,9.10
2010,04,02,04,21,12.50
2010,04,02,04,22,10.40
2010,04,02,04,23,13.50
2010,04,02,04,24,9.80
2010,04,02,04,25,9.60
2010,04,02,04,26,11.70
2010,04,02,04,27,9.10
2010,04,02,04,28,10.00
2010,04,02,04,29,11.80
2010,04,02,04,30,12.60
2010,04,02,04,31,8.50
2010,04,02,04,32,6.10
2010,04,02,04,33,9.50
2010,04,02,04,34,14.40
2010,04,02,04,35,14.20
2010,04,02,04,36,16.40
2010,04,02,04,37,20.30
2010,04,02,04,38,14.90
2010,04,02,04,39,10.30
2010,04,02,04,40,10.10
2010,04,02,04,41,11.50
2010,04,02,04,42,8.80
2010,04,02,04,43,14.90
2010,04,02,04,44,18.60
2010,04,02,04,45,20.50
2010,04,02,04,46,15.60
2010,04,02,04,47,23.10
2010,04,02,04,48,25.60
2010,04,02,04,49,23.70
2010,04,02,04,50,26.20
2010,04,02,04,51,22.10
2010,04,02,04,52,21.30
2010,04,02,04,53,20.00
2010,04,02,04,54,17.10
2010,04,02,04,55,19.70
2010,04,02,04,56,18.50
2010,04,02,04,57,25.70
2010,04,02,04,58,21.30
2010,04,02,04,59,18.50
2010,04,02,05,00,19.30
2010,04,02,05,01,26.90
2010,04,02,05,02,22.60
2010,04,02,05,03,27.10
2010,04,02,05,04,29.50
2010,04,02,05,05,23.30
2010,04,02,05,06,30.80
2010,04,02,05,07,26.30
2010,04,02,05,08,21.20
2010,04,02,05,09,25.30
2010,04,02,05,10,25.90
2010,04,02,05,11,30.20
2010,04,02,05,12,25.80
2010,04,02,05,13,32.00
2010,04,02,05,14,24.50
2010,04,02,05,15,31.40
2010,04,02,05,16,26.30
2010,04,02,05,17,24.80
2010,04,02,05,18,22.20
2010,04,02,05,19,29.90
2010,04,02,05,20,24.30
2010,04,02,05,21,16.00
2010,04,02,05,22,25.40
2010,04,02,05,23,29.50
2010,04,02,05,24,27.50
2010,04,02,05,25,17.00
2010,04,02,05,26,25.80
2010,04,02,05,27,23.50
2010,04,02,05,28,26.40
2010,04,02,05,29,21.60
2010,04,02,05,30,25.30
2010,04,02,05,31,36.00
2010,04,02,05,32,24.80
2010,04,02,05,33,27.10
2010,04,02,05,34,26.00
2010,04,02,05,35,30.10
2010,04,02,05,36,26.00
2010,04,02,05,37,21.10
2010,04,02,05,38,26.30
2010,04,02,05,39,31.70
2010,04,02,05,40,20.70
2010,04,02,05,41,17.80
2010,04,02,05,42,18.30
2010,04,02,05,43,27.30
2010,04,02,05,44,30.00
2010,04,02,05,45,22.50
2010,04,02,05,46,24.50
2010,04,02,05,47,22.50
2010,04,02,05,48,22.90
2010,04,02,05,49,16.90
2010,04,02,05,50,19.30
2010,04,02,05,51,36.00
2010,04,02,05,52,27.10
2010,04,02,05,53,33.20
2010,04,02,05,54,26.70
2010,04,02,05,55,30.30
2010,04,02,05,56,24.20
2010,04,02,05,57,27.40
2010,04,02,05,58,25.70
2010,04,02,05,59,22.40
2010,04,02,06,00,24.20
2010,04,02,06,01,24.40
2010,04,02,06,02,17.60
2010,04,02,06,03,26.30
2010,04,02,06,04,23.10
2010,04,02,06,05,22.60
2010,04,02,06,06,31.40
2010,04,02,06,07,23.60
2010,04,02,06,08,39.20
2010,04,02,06,09,29.90
2010,04,02,06,10,36.70
2010,04,02,06,11,43.90
2010,04,02,06,12,39.00
2010,04,02,06,13,26.30
2010,04,02,06,14,28.90
2010,04,02,06,15,29.60
2010,04,02,06,16,27.00
2010,04,02,06,17,32.10
2010,04,02,06,18,36.70
2010,04,02,06,19,25.60
2010,04,02,06,20,32.40
2010,04,02,06,21,32.20
2010,04,02,06,22,38.60
2010,04,02,06,23,32.20
2010,04,02,06,24,33.30
2010,04,02,06,25,30.90
2010,04,02,06,26,41.20
2010,04,02,06,27,30.80
2010,04,02,06,28,34.50
2010,04,02,06,29,40.50
2010,04,02,06,30,42.60
2010,04,02,06,31,42.60
2010,04,02,06,32,39.20
2010,04,02,06,33,32.80
2010,04,02,06,34,35.60
2010,04,02,06,35,47.60
2010,04,02,06,36,30.80
2010,04,02,06,37,31.20
2010,04,02,06,38,27.50
2010,04,02,06,39,38.90
2010,04,02,06,40,35.90
2010,04,02,06,41,45.00
2010,04,02,06,42,32.80
2010,04,02,06,43,37.50
2010,04,02,06,44,43.90
2010,04,02,06,45,35.50
2010,04,02,06,46,37.50
2010,04,02,06,47,37.90
2010,04,02,06,48,25.70
2010,04,02,06,49,44.40
2010,04,02,06,50,31.70
2010,04,02,06,51,38.50
2010,04,02,06,52,39.30
2010,04,02,06,53,26.30
2010,04,02,06,54,37.70
2010,04,02,06,55,43.40
2010,04,02,06,56,39.10
2010,04,02,06,57,32.30
2010,04,02,06,58,49.60
2010,04,02,06,59,39.80
2010,04,02,07,00,30.70
2010,04,02,07,01,39.70
2010,04,02,07,02,33.50
2010,04,02,07,03,34.70
2010,04,02,07,04,40.30
2010,04,02,07,05,44.00
2010,04,02,07,06,29.00
2010,04,02,07,07,24.80
2010,04,02,07,08,25.80
2010,04,02,07,09,33.80
2010,04,02,07,10,48.00
2010,04,02,07,11,37.30
2010,04,02,07,12,39.70
2010,04,02,07,13,43.10
2010,04,02,07,14,44.30
2010,04,02,07,15,25.50
2010,04,02,07,16,31.60
2010,04,02,07,17,23.80
2010,04,02,07,18,28.20
2010,04,02,07,19,24.90
2010,04,02,07,20,28.80
2010,04,02,07,21,38.00
2010,04,02,07,22,28.30
2010,04,02,07,23,32.40
2010,04,02,07,24,41.80
2010,04,02,07,25,42.80
2010,04,02,07,26,33.60
2010,04,02,07,27,30.10
2010,04,02,07,28,38.40
2010,04,02,07,29,25.90
2010,04,02,07,30,46.20
2010,04,02,07,31,33.70
2010,04,02,07,32,30.20
2010,04,02,07,33,40.90
2010,04,02,07,36,35.60
2010,04,02,07,37,35.70
2010,04,02,07,38,37.90
2010,04,02,07,39,33.20
2010,04,02,07,40,27.00
2010,04,02,07,41,29.90
2010,04,02,07,42,30.40
2010,04,02,07,43,43.80
2010,04,02,07,44,34.70
2010,04,02,07,45,33.50
2010,04,02,07,46,43.30
2010,04,02,07,47,34.60
2010,04,02,07,48,19.70
2010,04,02,07,49,35.20
2010,04,02,07,50,31.30
2010,04,02,07,51,36.80
2010,04,02,07,52,26.40
2010,04,02,07,53,43.80
2010,04,02,07,54,35.20
2010,04,02,07,55,40.20
2010,04,02,07,56,34.00
2010,04,02,07,57,36.00
2010,04,02,07,58,35.80
2010,04,02,07,59,28.30
2010,04,02,08,00,30.00
2010,04,02,08,01,32.10
2010,04,02,08,02,33.20
2010,04,02,08,03,33.00
2010,04,02,08,04,32.50
2010,04,02,08,05,40.90
2010,04,02,08,06,32.40
2010,04,02,08,07,36.20
2010,04,02,08,08,41.10
2010,04,02,08,09,30.60
2010,04,02,08,10,38.60
2010,04,02,08,11,38.10
2010,04,02,08,12,32.20
2010,04,02,08,13,32.60
2010,04,02,08,14,27.60
2010,04,02,08,15,18.70
2010,04,02,08,16,25.70
2010,04,02,08,17,15.40
2010,04,02,08,18,33.00
2010,04,02,08,19,34.40
2010,04,02,08,20,25.50
2010,04,02,08,21,18.90
2010,04,02,08,22,27.60
2010,04,02,08,23,29.80
2010,04,02,08,24,39.00
2010,04,02,08,25,36.80
2010,04,02,08,26,30.80
2010,04,02,08,27,24.90
2010,04,02,08,28,27.80
2010,04,02,08,29,30.40
2010,04,02,08,30,32.90
2010,04,02,08,31,31.80
2010,04,02,08,32,35.20
2010,04,02,08,33,32.00
2010,04,02,08,34,36.10
2010,04,02,08,35,22.20
2010,04,02,08,36,23.50
2010,04,02,08,37,21.50
2010,04,02,08,38,20.00
2010,04,02,08,39,26.20
2010,04,02,08,40,27.30
2010,04,02,08,41,26.90
2010,04,02,08,42,27.00
2010,04,02,08,43,28.60
2010,04,02,08,44,33.50
2010,04,02,08,45,35.40
2010,04,02,08,46,22.60
2010,04,02,08,47,30.90
2010,04,02,08,48,25.10
2010,04,02,08,49,38.80
2010,04,02,08,50,31.00
2010,04,02,08,51,38.40
2010,04,02,08,52,31.20
2010,04,02,08,53,26.70
2010,04,02,08,54,24.40
2010,04,02,08,55,25.20
2010,04,02,08,56,31.50
2010,04,02,08,57,36.90
2010,04,02,08,58,47.60
2010,04,02,08,59,38.00
2010,04,02,09,00,21.60
2010,04,02,09,01,27.30
2010,04,02,09,02,31.70
2010,04,02,09,03,23.40
2010,04,02,09,04,35.00
2010,04,02,09,05,33.10
2010,04,02,09,06,32.60
2010,04,02,09,07,32.40
2010,04,02,09,08,33.80
2010,04,02,09,09,39.50
2010,04,02,09,10,29.80
2010,04,02,09,11,24.90
2010,04,02,09,12,32.80
2010,04,02,09,13,43.50
2010,04,02,09,14,39.40
2010,04,02,09,15,41.50
2010,04,02,09,16,39.70
2010,04,02,09,17,38.60
2010,04,02,09,18,40.00
2010,04,02,09,19,30.10
2010,04,02,09,20,31.00
2010,04,02,09,21,21.90
2010,04,02,09,22,33.50
2010,04,02,09,23,36.30
2010,04,02,09,24,36.60
2010,04,02,09,25,37.60
2010,04,02,09,26,22.50
2010,04,02,09,27,22.20
2010,04,02,09,28,29.50
2010,04,02,09,29,34.50
2010,04,02,09,30,40.00
2010,04,02,09,31,31.70
2010,04,02,09,32,21.30
2010,04,02,09,33,28.40
2010,04,02,09,34,27.70
2010,04,02,09,35,27.90
2010,04,02,09,36,36.60
2010,04,02,09,37,28.70
2010,04,02,09,38,17.30
2010,04,02,09,39,29.10
2010,04,02,09,40,34.00
2010,04,02,09,41,28.70
2010,04,02,09,42,38.60
2010,04,02,09,43,32.30
2010,04,02,09,44,36.00
2010,04,02,09,45,32.70
2010,04,02,09,46,36.50
2010,04,02,09,47,43.70
2010,04,02,09,48,41.00
2010,04,02,09,49,34.80
2010,04,02,09,50,35.30
2010,04,02,09,51,31.40
2010,04,02,09,52,30.70
2010,04,02,09,53,34.40
2010,04,02,09,54,29.40
2010,04,02,09,55,32.20
2010,04,02,09,56,36.90
2010,04,02,09,57,32.60
2010,04,02,09,58,37.50
2010,04,02,09,59,35.50
2010,04,02,10,00,38.90
2010,04,02,10,01,39.40
2010,04,02,10,02,28.50
2010,04,02,10,03,35.90
2010,04,02,10,04,27.20
2010,04,02,10,05,35.10
2010,04,02,10,06,36.20
2010,04,02,10,07,33.50
2010,04,02,10,08,30.90
2010,04,02,10,09,34.10
2010,04,02,10,10,38.40
2010,04,02,10,11,31.30
2010,04,02,10,12,28.20
2010,04,02,10,13,35.80
2010,04,02,10,14,35.00
2010,04,02,10,15,41.90
2010,04,02,10,16,38.70
2010,04,02,10,17,27.20
2010,04,02,10,18,39.60
2010,04,02,10,19,51.00
2010,04,02,10,20,32.90
2010,04,02,10,21,37.60
2010,04,02,10,22,37.10
2010,04,02,10,23,30.50
2010,04,02,10,24,31.10
2010,04,02,10,25,26.00
2010,04,02,10,26,20.80
2010,04,02,10,27,44.50
2010,04,02,10,28,36.40
2010,04,02,10,29,41.80
2010,04,02,10,30,35.40
2010,04,02,10,31,25.50
2010,04,02,10,32,36.60
2010,04,02,10,33,48.40
2010,04,02,10,34,40.70
2010,04,02,10,35,35.50
2010,04,02,10,36,33.80
2010,04,02,10,37,44.00
2010,04,02,10,38,44.80
2010,04,02,10,39,34.70
2010,04,02,10,40,42.20
2010,04,02,10,41,29.10
2010,04,02,10,42,46.40
2010,04,02,10,43,39.60
2010,04,02,10,44,28.80
2010,04,02,10,45,32.10
2010,04,02,10,46,35.20
2010,04,02,10,47,37.20
2010,04,02,10,48,39.30
2010,04,02,10,49,49.40
2010,04,02,10,50,41.10
2010,04,02,10,51,41.90
2010,04,02,10,52,40.10
2010,04,02,10,53,44.10
2010,04,02,10,54,40.60
2010,04,02,10,55,30.70
2010,04,02,10,56,38.50
2010,04,02,10,57,40.40
2010,04,02,10,58,32.60
2010,04,02,10,59,40.50
2010,04,02,11,00,28.10
2010,04,02,11,01,31.90
2010,04,02,11,02,38.40
2010,04,02,11,03,39.00
2010,04,02,11,04,29.80
2010,04,02,11,05,36.10
2010,04,02,11,06,37.50
2010,04,02,11,07,35.00
2010,04,02,11,08,44.50
2010,04,02,11,09,32.90
2010,04,02,11,10,37.10
2010,04,02,11,11,51.30
2010,04,02,11,12,39.80
2010,04,02,11,13,32.60
2010,04,02,11,14,36.60
2010,04,02,11,15,41.10
2010,04,02,11,16,41.80
2010,04,02,11,17,31.80
2010,04,02,11,18,45.70
2010,04,02,11,19,42.40
2010,04,02,11,20,46.60
2010,04,02,11,21,31.80
2010,04,02,11,22,28.50
2010,04,02,11,23,34.60
2010,04,02,11,24,36.80
2010,04,02,11,25,33.50
2010,04,02,11,26,39.50
2010,04,02,11,27,36.20
2010,04,02,11,28,47.50
2010,04,02,11,29,27.00
2010,04,02,11,30,36.20
2010,04,02,11,31,40.60
2010,04,02,11,32,32.60
2010,04,02,11,33,44.30
2010,04,02,11,34,37.00
2010,04,02,11,35,38.50
2010,04,02,11,36,23.90
2010,04,02,11,37,29.90
2010,04,02,11,38,40.40
2010,04,02,11,39,30.70
2010,04,02,11,40,32.70
2010,04,02,11,41,37.70
2010,04,02,11,42,43.60
2010,04,02,11,43,28.30
2010,04,02,11,44,36.20
2010,04,02,11,47,30.80
2010,04,02,11,48,29.40
2010,04,02,11,49,27.40
2010,04,02,11,50,38.00
2010,04,02,11,51,41.70
2010,04,02,11,52,37.20
2010,04,02,11,53,33.80
2010,04,02,11,54,23.30
2010,04,02,11,55,50.20
2010,04,02,11,56,38.60
2010,04,02,11,57,34.40
2010,04,02,11,58,34.50
2010,04,02,11,59,39.50
2010,04,02,12,00,28.50
2010,04,02,12,01,39.20
2010,04,02,12,02,47.60
2010,04,02,12,03,37.40
2010,04,02,12,04,29.10
2010,04,02,12,05,41.60
2010,04,02,12,06,35.90
2010,04,02,12,07,43.50
2010,04,02,12,08,35.60
2010,04,02,12,09,32.10
2010,04,02,12,10,31.60
2010,04,02,12,11,41.60
2010,04,02,12,12,42.10
2010,04,02,12,13,38.40
2010,04,02,12,14,35.80
2010,04,02,12,15,31.80
2010,04,02,12,16,46.40
2010,04,02,12,17,47.90
2010,04,02,12,18,43.20
2010,04,02,12,19,36.60
2010,04,02,12,20,43.50
2010,04,02,12,21,38.60
2010,04,02,12,22,34.90
2010,04,02,12,23,35.70
2010,04,02,12,24,42.60
2010,04,02,12,25,38.60
2010,04,02,12,26,34.10
2010,04,02,12,27,35.20
2010,04,02,12,28,41.00
2010,04,02,12,29,38.40
2010,04,02,12,30,38.60
2010,04,02,12,31,36.50
2010,04,02,12,32,28.60
2010,04,02,12,33,41.60
2010,04,02,12,34,39.20
2010,04,02,12,35,37.70
2010,04,02,12,36,46.80
2010,04,02,12,37,35.10
2010,04,02,12,38,42.40
2010,04,02,12,39,39.20
2010,04,02,12,40,36.90
2010,04,02,12,41,43.40
2010,04,02,12,42,37.80
2010,04,02,12,43,35.20
2010,04,02,12,44,42.00
2010,04,02,12,45,54.30
2010,04,02,12,46,31.80
2010,04,02,12,47,33.50
2010,04,02,12,48,30.90
2010,04,02,12,49,39.60
2010,04,02,12,50,41.90
2010,04,02,12,51,40.40
2010,04,02,12,52,38.10
2010,04,02,12,53,33.10
2010,04,02,12,54,36.30
2010,04,02,12,55,42.50
2010,04,02,12,56,35.50
2010,04,02,12,57,33.30
2010,04,02,12,58,36.20
2010,04,02,12,59,33.60
2010,04,02,13,00,35.90
2010,04,02,13,01,31.50
2010,04,02,13,02,25.30
2010,04,02,13,03,41.00
2010,04,02,13,04,25.00
2010,04,02,13,05,31.30
2010,04,02,13,06,27.20
2010,04,02,13,07,26.60
2010,04,02,13,08,41.10
2010,04,02,13,09,26.50
2010,04,02,13,10,34.30
2010,04,02,13,11,27.10
2010,04,02,13,12,27.50
2010,04,02,13,13,42.60
2010,04,02,13,14,36.50
2010,04,02,13,15,40.10
2010,04,02,13,16,30.80
2010,04,02,13,17,29.70
2010,04,02,13,18,37.50
2010,04,02,13,19,30.50
2010,04,02,13,20,34.50
2010,04,02,13,21,38.90
2010,04,02,13,22,34.20
2010,04,02,13,23,28.30
2010,04,02,13,24,33.70
2010,04,02,13,25,27.20
2010,04,02,13,26,33.60
2010,04,02,13,27,36.30
2010,04,02,13,28,29.90
2010,04,02,13,29,32.80
2010,04,02,13,30,35.30
2010,04,02,13,31,36.20
2010,04,02,13,32,27.80
2010,04,02,13,33,27.80
2010,04,02,13,34,38.00
2010,04,02,13,35,31.10
2010,04,02,13,36,27.50
2010,04,02,13,37,32.70
2010,04,02,13,38,34.80
2010,04,02,13,39,29.30
2010,04,02,13,40,38.80
2010,04,02,13,41,28.80
2010,04,02,13,42,41.80
2010,04,02,13,43,32.40
2010,04,02,13,44,38.20
2010,04,02,13,45,33.00
2010,04,02,13,46,29.00
2010,04,02,13,47,28.00
2010,04,02,13,48,34.20
2010,04,02,13,49,32.40
2010,04,02,13,50,39.90
2010,04,02,13,51,38.80
2010,04,02,13,52,29.90
2010,04,02,13,53,36.50
2010,04,02,13,54,25.70
2010,04,02,13,55,30.20
2010,04,02,13,56,29.30
2010,04,02,13,57,25.40
2010,04,02,13,58,19.00
2010,04,02,13,59,23.80
2010,04,02,14,00,28.40
2010,04,02,14,01,26.00
2010,04,02,14,02,30.70
2010,04,02,14,03,29.10
2010,04,02,14,04,30.30
2010,04,02,14,05,27.80
2010,04,02,14,06,33.50
2010,04,02,14,07,32.40
2010,04,02,14,08,23.10
2010,04,02,14,09,26.00
2010,04,02,14,10,25.60
2010,04,02,14,11,29.10
2010,04,02,14,12,20.10
2010,04,02,14,13,24.30
2010,04,02,14,14,29.10
2010,04,02,14,15,26.90
2010,04,02,14,16,34.90
2010,04,02,14,17,26.90
2010,04,02,14,18,28.90
2010,04,02,14,19,31.50
2010,04,02,14,20,27.80
2010,04,02,14,21,26.60
2010,04,02,14,22,28.70
2010,04,02,14,23,29.50
2010,04,02,14,24,26.50
2010,04,02,14,25,20.50
2010,04,02,14,26,29.30
2010,04,02,14,27,31.10
2010,04,02,14,28,23.50
2010,04,02,14,29,25.30
2010,04,02,14,30,24.30
2010,04,02,14,31,27.40
2010,04,02,14,32,24.10
2010,04,02,14,33,31.60
2010,04,02,14,34,29.80
2010,04,02,14,35,33.40
2010,04,02,14,36,25.60
2010,04,02,14,37,26.40
2010,04,02,14,38,28.30
2010,04,02,14,39,28.80
2010,04,02,14,40,32.80
2010,04,02,14,41,29.20
2010,04,02,14,42,26.60
2010,04,02,14,43,26.90
2010,04,02,14,44,23.60
2010,04,02,14,45,25.80
2010,04,02,14,46,26.30
2010,04,02,14,47,24.80
2010,04,02,14,48,24.00
2010,04,02,14,49,29.10
2010,04,02,14,50,25.50
2010,04,02,14,51,29.50
2010,04,02,14,52,23.70
2010,04,02,14,53,26.30
2010,04,02,14,54,31.50
2010,04,02,14,55,28.30
2010,04,02,14,56,28.20
2010,04,02,14,57,23.60
2010,04,02,14,58,25.00
2010,04,02,14,59,23.10
2010,04,02,15,00,19.80
2010,04,02,15,01,24.20
2010,04,02,15,02,25.40
2010,04,02,15,03,21.40
2010,04,02,15,04,25.30
2010,04,02,15,05,23.20
2010,04,02,15,06,18.40
2010,04,02,15,07,21.60
2010,04,02,15,08,24.90
2010,04,02,15,09,26.00
2010,04,02,15,10,21.70
2010,04,02,15,11,25.60
2010,04,02,15,12,27.90
2010,04,02,15,13,19.00
2010,04,02,15,14,24.70
2010,04,02,15,15,22.70
2010,04,02,15,16,29.90
2010,04,02,15,17,20.80
2010,04,02,15,18,19.00
2010,04,02,15,19,17.80
2010,04,02,15,20,23.50
2010,04,02,15,21,15.60
2010,04,02,15,22,19.90
2010,04,02,15,23,25.10
2010,04,02,15,24,15.90
2010,04,02,15,25,28.30
2010,04,02,15,26,21.70
2010,04,02,15,27,24.00
2010,04,02,15,28,16.10
2010,04,02,15,29,12.80
2010,04,02,15,30,15.80
2010,04,02,15,31,19.00
2010,04,02,15,32,16.20
2010,04,02,15,33,18.50
2010,04,02,15,34,22.50
2010,04,02,15,35,20.90
2010,04,02,15,36,23.80
2010,04,02,15,37,28.20
2010,04,02,15,38,24.40
2010,04,02,15,39,24.90
2010,04,02,15,40,18.30
2010,04,02,15,41,19.70
2010,04,02,15,42,21.20
2010,04,02,15,43,24.60
2010,04,02,15,44,19.20
2010,04,02,15,45,18.80
2010,04,02,15,46,17.20
2010,04,02,15,47,17.50
2010,04,02,15,48,22.90
2010,04,02,15,49,16.80
2010,04,02,15,50,19.50
2010,04,02,15,51,17.20
2010,04,02,15,52,7.60
2010,04,02,15,53,11.50
2010,04,02,15,54,12.60
2010,04,02,15,55,17.90
2010,04,02,15,56,14.70
2010,04,02,15,57,20.20
2010,04,02,15,58,16.00
2010,04,02,15,59,19.10
2010,04,02,16,00,20.20
2010,04,02,16,01,20.10
2010,04,02,16,02,25.10
2010,04,02,16,03,21.60
2010,04,02,16,04,24.30
2010,04,02,16,05,18.00
2010,04,02,16,06,21.90
2010,04,02,16,07,15.60
2010,04,02,16,08,14.70
2010,04,02,16,09,18.90
2010,04,02,16,10,11.70
2010,04,02,16,11,13.60
2010,04,02,16,12,12.00
2010,04,02,16,13,14.70
2010,04,02,16,14,15.20
2010,04,02,16,15,24.30
2010,04,02,16,16,19.20
2010,04,02,16,17,18.80
2010,04,02,16,18,13.60
2010,04,02,16,19,15.40
2010,04,02,16,20,15.00
2010,04,02,16,21,21.90
2010,04,02,16,22,21.50
2010,04,02,16,23,21.80
2010,04,02,16,24,17.00
2010,04,02,16,25,20.20
2010,04,02,16,26,14.60
2010,04,02,16,27,18.50
2010,04,02,16,28,17.40
2010,04,02,16,29,16.20
2010,04,02,16,30,23.80
2010,04,02,16,31,18.80
2010,04,02,16,32,23.90
2010,04,02,16,33,19.90
2010,04,02,16,34,28.80
2010,04,02,16,35,24.60
2010,04,02,16,36,21.40
2010,04,02,16,37,22.80
2010,04,02,16,38,20.20
2010,04,02,16,39,19.60
2010,04,02,16,40,24.30
2010,04,02,16,41,17.40
2010,04,02,16,42,25.40
2010,04,02,16,43,20.50
2010,04,02,16,44,16.70
2010,04,02,16,45,12.00
2010,04,02,16,46,17.30
2010,04,02,16,47,23.00
2010,04,02,16,48,19.00
2010,04,02,16,49,18.60
2010,04,02,16,50,18.70
2010,04,02,16,51,17.20
2010,04,02,16,52,20.00
2010,04,02,16,53,20.20
2010,04,02,16,54,9.30
2010,04,02,16,55,13.00
2010,04,02,16,56,18.60
2010,04,02,16,57,25.40
2010,04,02,16,58,20.40
2010,04,02,16,59,21.70
2010,04,02,17,00,19.40
2010,04,02,17,01,15.70
2010,04,02,17,02,18.10
2010,04,02,17,03,23.30
2010,04,02,17,04,14.90
2010,04,02,17,05,23.90
2010,04,02,17,06,20.60
2010,04,02,17,07,20.30
2010,04,02,17,08,18.80
2010,04,02,17,09,20.20
2010,04,02,17,10,15.30
2010,04,02,17,11,14.10
2010,04,02,17,12,9.60
2010,04,02,17,13,26.50
2010,04,02,17,14,21.70
2010,04,02,17,15,16.50
2010,04,02,17,16,12.50
2010,04,02,17,17,16.00
2010,04,02,17,18,18.50
2010,04,02,17,19,14.00
2010,04,02,17,20,16.80
2010,04,02,17,21,17.60
2010,04,02,17,22,15.60
2010,04,02,17,23,15.30
2010,04,02,17,24,13.90